Orbital Elements at Epoch 2459200.5 (2020-Dec-17.0) TDB
Reference: JPL 22 (heliocentric ecliptic J2000)
Element | Value | Uncertainty (1-sigma) | Units |
e | .2022369044986042 | 7.9902e-08 | |
a | 2.299735685353187 | 5.3221e-09 | au |
q | 1.834644259182382 | 1.8229e-07 | au |
i | 5.15722787285732 | 5.8905e-06 | deg |
node | 359.0066320032372 | 3.3058e-05 | deg |
peri | 6.272716163672531 | 3.4807e-05 | deg |
M | 130.2742658223601 | 7.6202e-06 | deg |
tp | 2458739.531290164087 (2019-Sep-13.03129016) | 2.6824e-05 | TDB |
period | 1273.841264760713 3.49 | 4.4219e-06 1.211e-08 | d yr |
n | .2826097803226878 | 9.8104e-10 | deg/d |
Q | 2.764827111523992 | 6.3984e-09 | au |
|
| | Orbit Determination Parameters
Additional Information
|